STARLINK-5504, 57262

Orbit data source: Space-Track

STARLINK-5504, 57262 is a payload satellite owned by SpaceX/Seattle (US) in LEO that was launched on Fri, 07 Jul 2023 UTC via an FALCON 9 launch vehicle from the Air Force Western Test Range (AFWTR). Payload-class satellites include a variety of spacecraft equipped with specific instruments for various scientific and technological missions. These include communications satellites like Starlink; space stations such as the ISS; scientific satellites like the Hubble; Earth observation satellites from companies like Planet Labs, Umbra, and HawkEye 360; GPS; miniature CubeSats for education and research; and military/defense satellites.

Loading next visibility...
Identifier
57262, 2023-094AW
Orbit
LEO
Country
Flag of USUS
Related business
Manufacturer
SpaceX/Seattle
Mission
Operational Commercial Communications
Bus & Motor
STARLINK, Unknown motor
Mass
305 kg wet, ~290 kg dry
Launch date (UTC)
2023-07-07 (3 years ago)
Launch vehicle
FALCON 9
Launch site
Air Force Western Test Range (AFWTR)
Object type
Payload
Rocket body
Debris
Shape & HBR
Box + 1 Pan, 10.1 m
Radar Cross Section
11.087 m², Large (>1 m²)

Expand to show TLE details & history
Last TLE update: 10 hours ago

TLE from 10 hours ago
0 STARLINK-5504
1 57262U 23094AW  26167.75730356  .00000106  00000-0  13384-4 0  9998
2 57262  43.0021 180.1819 0001184 279.1412  80.9306 15.27577357162398
Epoch: 2026-06-16T18:10Z
TLE epoch observation values (Epoch: 2026-06-16T18:10:31.027Z)
Latitude
-0°
Longitude
2.52786°
Altitude
482.705 km
Speed
7.626 km/s
True Right ascension
12h 00m 43s
True Declination
0° 00' 00"
Sunlit
Object was in daylight at epoch
Visualization orbit readout
Latitude
Unknown
Longitude
Unknown
Altitude
Unknown
Speed
Unknown
Apparent Right ascension
Unknown
Apparent Declination
Unknown
Sunlit
N/A
Visualization observer readout
Local Sidereal Time
14:31:59
Azimuth
Unknown
Elevation
Unknown
Doppler factor
Unknown
Orbital elements
Apogee altitude
485.814 km
Perigee altitude
484.189 km
Semi-major axis
6,863.139 km
Eccentricity
0.00012
Inclination
43.0021°
RAAN
180.1819°
Arg. of periapsis
279.1412°
True anomaly
80.944°
Mean anomaly
80.9306°
Eccentric anomaly
80.9373°
Mean motion
3.81732 °/min
Orbital period
94.31 mins
BSTAR
0.000013384
Loading maneuver chart data...
Computing Atmospheric mass density...
Loading historical data...
Loading historical data...
Loading historical data...
Loading historical data...
Loading historical data...
Loading historical data...
Loading historical data...

Documentation

Showing up to 5 results
|